Location: Chervonnoye
(48.6000°N, 34.4000°E)
Time: 07:52:44
(UTC+00:00)

NOAA 15 - Pass Details

Date: 07 December 2021
Orbit: 797 x 812 km, 98.7° (Epoch: 26 January)

Event Time Altitude Azimuth Distance (km) Brightness Sun altitude
Rises 17:52:00 0° 209° (SSW) 3,315 8.0 -39.4°
Reaches altitude 10° 17:55:06 10° 229° (SW) 2,387 7.4 -39.9°
Maximum altitude 17:58:37 18° 271° (W) 1,897 7.0 -40.5°
Drops below altitude 10° 18:02:09 10° 313° (NW) 2,392 7.6 -41.0°
Sets 18:05:16 0° 332° (NNW) 3,326 8.2 -41.6°
